Time,TemperatureF,DewpointF,PressureIn,WindDirection,WindDirectionDegrees,WindSpeedMPH,WindSpeedGustMPH,Humidity,HourlyPrecipIn,Conditions,Clouds,dailyrainin,SoftwareType,DateUTC
2013-02-25 00:01:00,31.0,24.0,-100.00,SE,125,0.0,2.0,74,0.00,,,-99.99,,2013-02-25 05:01:00,
2013-02-25 00:11:00,31.0,24.0,-100.00,SSW,205,1.0,2.0,74,0.00,,,-99.99,,2013-02-25 05:11:00,
2013-02-25 00:22:00,31.0,24.0,-100.00,WNW,290,1.0,4.0,74,0.00,,,-99.99,,2013-02-25 05:22:00,
2013-02-25 00:32:00,31.0,24.0,-100.00,SSW,210,1.0,3.0,74,0.00,,,-99.99,,2013-02-25 05:32:00,
2013-02-25 00:42:00,31.0,24.0,-100.00,ENE,75,0.0,1.0,74,0.00,,,-99.99,,2013-02-25 05:42:00,
2013-02-25 00:52:00,31.0,24.0,-100.00,SW,225,1.0,3.0,75,0.00,,,-99.99,,2013-02-25 05:52:00,
2013-02-25 01:02:00,31.0,24.0,-100.00,SSW,200,1.0,4.0,75,0.00,,,-99.99,,2013-02-25 06:02:00,
2013-02-25 01:11:00,30.0,23.0,-100.00,NE,55,0.0,3.0,75,0.00,,,-99.99,,2013-02-25 06:11:00,
2013-02-25 01:21:00,30.0,23.0,-100.00,WNW,295,0.0,1.0,75,0.00,,,-99.99,,2013-02-25 06:21:00,
2013-02-25 01:32:00,29.0,22.0,-100.00,SSW,205,1.0,4.0,75,0.00,,,-99.99,,2013-02-25 06:32:00,
2013-02-25 01:42:00,28.0,22.0,-100.00,NNE,20,0.0,1.0,76,0.00,,,-99.99,,2013-02-25 06:42:00,
2013-02-25 01:51:00,28.0,22.0,-100.00,South,185,0.0,1.0,77,0.00,,,-99.99,,2013-02-25 06:51:00,
2013-02-25 02:01:00,28.0,22.0,-100.00,SW,230,0.0,1.0,77,0.00,,,-99.99,,2013-02-25 07:01:00,
2013-02-25 02:11:00,27.0,21.0,-100.00,NNE,20,0.0,0.0,78,0.00,,,-99.99,,2013-02-25 07:11:00,
2013-02-25 02:21:00,27.0,21.0,-100.00,SW,220,1.0,1.0,79,0.00,,,-99.99,,2013-02-25 07:21:00,
2013-02-25 02:32:00,26.0,20.0,-100.00,SSW,205,1.0,3.0,79,0.00,,,-99.99,,2013-02-25 07:32:00,
2013-02-25 02:42:00,26.0,20.0,-100.00,SSW,205,1.0,3.0,79,0.00,,,-99.99,,2013-02-25 07:42:00,
2013-02-25 02:51:00,25.0,20.0,-100.00,SSW,200,1.0,2.0,81,0.00,,,-99.99,,2013-02-25 07:51:00,
2013-02-25 03:01:00,25.0,20.0,-100.00,SW,235,0.0,3.0,82,0.00,,,-99.99,,2013-02-25 08:01:00,
2013-02-25 03:11:00,25.0,20.0,-100.00,SW,235,0.0,3.0,82,0.00,,,-99.99,,2013-02-25 08:11:00,
2013-02-25 03:22:00,24.0,20.0,-100.00,SW,225,0.0,2.0,82,0.00,,,-99.99,,2013-02-25 08:22:00,
2013-02-25 03:32:00,24.0,20.0,-100.00,NNW,330,0.0,2.0,82,0.00,,,-99.99,,2013-02-25 08:32:00,
2013-02-25 03:41:00,24.0,20.0,-100.00,WSW,250,1.0,3.0,83,0.00,,,-99.99,,2013-02-25 08:41:00,
2013-02-25 03:52:00,24.0,20.0,-100.00,WSW,250,1.0,3.0,83,0.00,,,-99.99,,2013-02-25 08:52:00,
2013-02-25 04:01:00,23.0,19.0,-100.00,SSW,210,0.0,1.0,84,0.00,,,-99.99,,2013-02-25 09:01:00,
2013-02-25 04:12:00,23.0,19.0,-100.00,North,0,0.0,4.0,84,0.00,,,-99.99,,2013-02-25 09:12:00,
2013-02-25 04:21:00,23.0,19.0,-100.00,SW,215,1.0,2.0,84,0.00,,,-99.99,,2013-02-25 09:21:00,
2013-02-25 04:32:00,23.0,19.0,-100.00,SSW,210,0.0,2.0,85,0.00,,,-99.99,,2013-02-25 09:32:00,
2013-02-25 04:42:00,22.0,19.0,-100.00,SSW,210,1.0,1.0,85,0.00,,,-99.99,,2013-02-25 09:42:00,
2013-02-25 04:52:00,22.0,19.0,-100.00,South,190,0.0,2.0,85,0.00,,,-99.99,,2013-02-25 09:52:00,
2013-02-25 05:01:00,22.0,19.0,-100.00,South,190,0.0,2.0,85,0.00,,,-99.99,,2013-02-25 10:01:00,
2013-02-25 05:11:00,22.0,19.0,-100.00,NNW,340,0.0,5.0,85,0.00,,,-99.99,,2013-02-25 10:11:00,
2013-02-25 05:21:00,22.0,19.0,-100.00,NNW,335,0.0,2.0,86,0.00,,,-99.99,,2013-02-25 10:21:00,
2013-02-25 05:32:00,22.0,19.0,-100.00,NW,320,0.0,2.0,86,0.00,,,-99.99,,2013-02-25 10:32:00,
2013-02-25 05:42:00,22.0,19.0,-100.00,North,350,0.0,1.0,86,0.00,,,-99.99,,2013-02-25 10:42:00,
2013-02-25 05:52:00,22.0,18.0,-100.00,SSW,205,1.0,3.0,86,0.00,,,-99.99,,2013-02-25 10:52:00,
2013-02-25 06:01:00,21.0,18.0,-100.00,South,180,1.0,2.0,86,0.00,,,-99.99,,2013-02-25 11:01:00,
2013-02-25 06:11:00,21.0,18.0,-100.00,SE,130,0.0,1.0,86,0.00,,,-99.99,,2013-02-25 11:11:00,
2013-02-25 06:22:00,20.0,17.0,-100.00,South,190,0.0,1.0,87,0.00,,,-99.99,,2013-02-25 11:22:00,
2013-02-25 06:32:00,20.0,17.0,-100.00,SW,230,0.0,0.0,87,0.00,,,-99.99,,2013-02-25 11:32:00,
2013-02-25 06:42:00,20.0,17.0,-100.00,SSE,165,0.0,2.0,87,0.00,,,-99.99,,2013-02-25 11:42:00,
2013-02-25 06:52:00,20.0,17.0,-100.00,ESE,110,0.0,0.0,87,0.00,,,-99.99,,2013-02-25 11:52:00,
2013-02-25 07:02:00,20.0,17.0,-100.00,East,80,0.0,0.0,87,0.00,,,-99.99,,2013-02-25 12:02:00,
2013-02-25 07:11:00,20.0,17.0,-100.00,WSW,240,0.0,3.0,87,0.00,,,-99.99,,2013-02-25 12:11:00,
2013-02-25 07:21:00,20.0,17.0,-100.00,SSW,205,0.0,0.0,88,0.00,,,-99.99,,2013-02-25 12:21:00,
2013-02-25 07:32:00,20.0,17.0,-100.00,South,180,0.0,3.0,88,0.00,,,-99.99,,2013-02-25 12:32:00,
2013-02-25 07:42:00,21.0,18.0,-100.00,SW,215,0.0,3.0,88,0.00,,,-99.99,,2013-02-25 12:42:00,
2013-02-25 07:54:00,21.0,18.0,-100.00,South,175,0.0,2.0,88,0.00,,,-99.99,,2013-02-25 12:54:00,
2013-02-25 08:02:00,21.0,18.0,-100.00,South,180,0.0,2.0,88,0.00,,,-99.99,,2013-02-25 13:02:00,
2013-02-25 08:12:00,22.0,19.0,-100.00,East,80,0.0,2.0,88,0.00,,,-99.99,,2013-02-25 13:12:00,
2013-02-25 08:22:00,23.0,20.0,-100.00,NE,45,1.0,4.0,88,0.00,,,-99.99,,2013-02-25 13:22:00,
2013-02-25 08:32:00,24.0,21.0,-100.00,SW,225,0.0,4.0,88,0.00,,,-99.99,,2013-02-25 13:32:00,
2013-02-25 08:42:00,25.0,22.0,-100.00,SSW,205,2.0,5.0,88,0.00,,,-99.99,,2013-02-25 13:42:00,
2013-02-25 08:52:00,25.0,22.0,-100.00,SSW,200,0.0,2.0,88,0.00,,,-99.99,,2013-02-25 13:52:00,
2013-02-25 09:03:00,27.0,24.0,-100.00,SSE,155,0.0,1.0,87,0.00,,,-99.99,,2013-02-25 14:03:00,
2013-02-25 09:17:00,28.0,24.0,-100.00,South,175,0.0,2.0,88,0.00,,,-99.99,,2013-02-25 14:17:00,
2013-02-25 09:32:00,29.0,26.0,-100.00,SSW,210,1.0,4.0,87,0.00,,,-99.99,,2013-02-25 14:32:00,
2013-02-25 09:42:00,30.0,27.0,-100.00,SSW,200,1.0,2.0,86,0.00,,,-99.99,,2013-02-25 14:42:00,
2013-02-25 09:52:00,31.0,27.0,-100.00,SSW,195,2.0,3.0,86,0.00,,,-99.99,,2013-02-25 14:52:00,
2013-02-25 10:03:00,32.0,28.0,-100.00,SSW,195,1.0,2.0,86,0.00,,,-99.99,,2013-02-25 15:03:00,
2013-02-25 10:11:00,33.0,28.0,-100.00,SSW,195,1.0,2.0,84,0.00,,,-99.99,,2013-02-25 15:11:00,
2013-02-25 10:22:00,33.0,29.0,-100.00,SE,140,2.0,5.0,84,0.00,,,-99.99,,2013-02-25 15:22:00,
2013-02-25 10:32:00,35.0,30.0,-100.00,ESE,105,1.0,4.0,82,0.00,,,-99.99,,2013-02-25 15:32:00,
2013-02-25 10:42:00,35.0,30.0,-100.00,ESE,105,1.0,5.0,79,0.00,,,-99.99,,2013-02-25 15:42:00,
2013-02-25 10:51:00,35.0,28.0,-100.00,SE,130,1.0,4.0,77,0.00,,,-99.99,,2013-02-25 15:51:00,
2013-02-25 11:02:00,37.0,30.0,-100.00,East,95,2.0,6.0,74,0.00,,,-99.99,,2013-02-25 16:02:00,
2013-02-25 11:12:00,38.0,30.0,-100.00,East,95,1.0,6.0,71,0.00,,,-99.99,,2013-02-25 16:12:00,
2013-02-25 11:21:00,38.0,29.0,-100.00,ESE,105,2.0,6.0,69,0.00,,,-99.99,,2013-02-25 16:21:00,
2013-02-25 11:32:00,39.0,27.0,-100.00,North,355,1.0,4.0,63,0.00,,,-99.99,,2013-02-25 16:32:00,
2013-02-25 11:42:00,41.0,27.0,-100.00,East,95,2.0,5.0,57,0.00,,,-99.99,,2013-02-25 16:42:00,
2013-02-25 11:51:00,36.0,24.0,-100.00,South,190,2.0,4.0,60,0.00,,,-99.99,,2013-02-25 16:51:00,
2013-02-25 12:02:00,36.0,22.0,-100.00,South,185,2.0,3.0,56,0.00,,,-99.99,,2013-02-25 17:02:00,
2013-02-25 12:11:00,40.0,23.0,-100.00,SW,215,2.0,4.0,50,0.00,,,-99.99,,2013-02-25 17:11:00,
2013-02-25 12:21:00,40.0,24.0,-100.00,NE,55,1.0,4.0,51,0.00,,,-99.99,,2013-02-25 17:21:00,
2013-02-25 12:32:00,39.0,23.0,-100.00,SE,125,1.0,3.0,52,0.00,,,-99.99,,2013-02-25 17:32:00,
2013-02-25 12:42:00,39.0,23.0,-100.00,WNW,300,1.0,4.0,53,0.00,,,-99.99,,2013-02-25 17:42:00,
2013-02-25 12:52:00,41.0,24.0,-100.00,ESE,105,2.0,6.0,51,0.00,,,-99.99,,2013-02-25 17:52:00,
2013-02-25 13:02:00,42.0,24.0,-100.00,ESE,105,2.0,4.0,49,0.00,,,-99.99,,2013-02-25 18:02:00,
2013-02-25 13:12:00,41.0,23.0,-100.00,East,100,2.0,7.0,47,0.00,,,-99.99,,2013-02-25 18:12:00,
2013-02-25 13:21:00,42.0,26.0,-100.00,East,100,4.0,6.0,53,0.00,,,-99.99,,2013-02-25 18:21:00,
2013-02-25 13:33:00,42.0,24.0,-100.00,ENE,70,4.0,7.0,48,0.00,,,-99.99,,2013-02-25 18:33:00,
2013-02-25 13:42:00,42.0,24.0,-100.00,SE,125,1.0,6.0,48,0.00,,,-99.99,,2013-02-25 18:42:00,
2013-02-25 13:51:00,41.0,24.0,-100.00,NNE,15,3.0,8.0,50,0.00,,,-99.99,,2013-02-25 18:51:00,
2013-02-25 14:01:00,41.0,24.0,-100.00,NNE,25,5.0,9.0,51,0.00,,,-99.99,,2013-02-25 19:01:00,
2013-02-25 14:11:00,41.0,24.0,-100.00,NNE,25,4.0,10.0,51,0.00,,,-99.99,,2013-02-25 19:11:00,
2013-02-25 14:21:00,41.0,24.0,-100.00,NE,55,4.0,8.0,50,0.00,,,-99.99,,2013-02-25 19:21:00,
2013-02-25 14:32:00,41.0,23.0,-100.00,NE,40,5.0,9.0,49,0.00,,,-99.99,,2013-02-25 19:32:00,
2013-02-25 14:42:00,41.0,24.0,-100.00,NNE,30,6.0,9.0,49,0.00,,,-99.99,,2013-02-25 19:42:00,
2013-02-25 14:52:00,42.0,23.0,-100.00,NE,40,5.0,11.0,48,0.00,,,-99.99,,2013-02-25 19:52:00,
2013-02-25 15:01:00,42.0,24.0,-100.00,East,90,4.0,9.0,49,0.00,,,-99.99,,2013-02-25 20:01:00,
2013-02-25 15:11:00,43.0,24.0,-100.00,East,100,3.0,9.0,46,0.00,,,-99.99,,2013-02-25 20:11:00,
2013-02-25 15:21:00,43.0,24.0,-100.00,SE,125,2.0,6.0,45,0.00,,,-99.99,,2013-02-25 20:21:00,
2013-02-25 15:32:00,44.0,24.0,-100.00,East,85,2.0,7.0,44,0.00,,,-99.99,,2013-02-25 20:32:00,
2013-02-25 15:42:00,42.0,23.0,-100.00,ENE,60,6.0,10.0,46,0.00,,,-99.99,,2013-02-25 20:42:00,
2013-02-25 15:52:00,43.0,26.0,-100.00,ENE,60,6.0,9.0,50,0.00,,,-99.99,,2013-02-25 20:52:00,
2013-02-25 16:02:00,44.0,26.0,-100.00,East,95,4.0,8.0,47,0.00,,,-99.99,,2013-02-25 21:02:00,
2013-02-25 16:11:00,44.0,26.0,-100.00,East,90,2.0,6.0,48,0.00,,,-99.99,,2013-02-25 21:11:00,
2013-02-25 16:21:00,44.0,26.0,-100.00,ENE,75,3.0,6.0,49,0.00,,,-99.99,,2013-02-25 21:21:00,
2013-02-25 16:32:00,44.0,26.0,-100.00,ENE,60,3.0,7.0,47,0.00,,,-99.99,,2013-02-25 21:32:00,
2013-02-25 16:42:00,43.0,25.0,-100.00,NE,55,4.0,7.0,48,0.00,,,-99.99,,2013-02-25 21:42:00,
2013-02-25 16:51:00,44.0,25.0,-100.00,NE,35,3.0,7.0,46,0.00,,,-99.99,,2013-02-25 21:51:00,
2013-02-25 17:01:00,43.0,24.0,-100.00,ESE,105,2.0,7.0,46,0.00,,,-99.99,,2013-02-25 22:01:00,
2013-02-25 17:11:00,43.0,24.0,-100.00,ENE,65,4.0,8.0,46,0.00,,,-99.99,,2013-02-25 22:11:00,
2013-02-25 17:21:00,43.0,24.0,-100.00,East,85,1.0,7.0,46,0.00,,,-99.99,,2013-02-25 22:21:00,
2013-02-25 17:32:00,42.0,24.0,-100.00,ENE,60,3.0,8.0,48,0.00,,,-99.99,,2013-02-25 22:32:00,
2013-02-25 17:42:00,42.0,24.0,-100.00,ENE,75,4.0,7.0,48,0.00,,,-99.99,,2013-02-25 22:42:00,
2013-02-25 17:51:00,41.0,24.0,-100.00,NE,55,4.0,6.0,51,0.00,,,-99.99,,2013-02-25 22:51:00,
2013-02-25 18:01:00,40.0,24.0,-100.00,NE,55,4.0,6.0,52,0.00,,,-99.99,,2013-02-25 23:01:00,
2013-02-25 18:11:00,39.0,24.0,-100.00,ENE,60,3.0,6.0,53,0.00,,,-99.99,,2013-02-25 23:11:00,
2013-02-25 18:22:00,38.0,23.0,-100.00,NE,50,2.0,3.0,54,0.00,,,-99.99,,2013-02-25 23:22:00,
2013-02-25 18:32:00,38.0,24.0,-100.00,NE,50,1.0,3.0,56,0.00,,,-99.99,,2013-02-25 23:32:00,
2013-02-25 18:42:00,37.0,23.0,-100.00,NE,35,1.0,4.0,57,0.00,,,-99.99,,2013-02-25 23:42:00,
2013-02-25 18:52:00,37.0,23.0,-100.00,North,10,1.0,3.0,57,0.00,,,-99.99,,2013-02-25 23:52:00,
2013-02-25 19:02:00,37.0,22.0,-100.00,NE,55,1.0,3.0,55,0.00,,,-99.99,,2013-02-26 00:02:00,
2013-02-25 19:12:00,37.0,22.0,-100.00,NNE,25,0.0,2.0,55,0.00,,,-99.99,,2013-02-26 00:12:00,
2013-02-25 19:22:00,35.0,22.0,-100.00,NW,305,0.0,3.0,58,0.00,,,-99.99,,2013-02-26 00:22:00,
2013-02-25 19:32:00,36.0,23.0,-100.00,NNE,20,2.0,4.0,59,0.00,,,-99.99,,2013-02-26 00:32:00,
2013-02-25 19:42:00,34.0,23.0,-100.00,NNW,345,2.0,5.0,62,0.00,,,-99.99,,2013-02-26 00:42:00,
2013-02-25 19:51:00,34.0,23.0,-100.00,North,0,2.0,4.0,65,0.00,,,-99.99,,2013-02-26 00:51:00,
2013-02-25 20:02:00,34.0,23.0,-100.00,North,0,2.0,4.0,65,0.00,,,-99.99,,2013-02-26 01:02:00,
2013-02-25 20:11:00,33.0,24.0,-100.00,North,0,1.0,3.0,67,0.00,,,-99.99,,2013-02-26 01:11:00,
2013-02-25 20:21:00,33.0,24.0,-100.00,North,0,2.0,5.0,68,0.00,,,-99.99,,2013-02-26 01:21:00,
2013-02-25 20:32:00,33.0,23.0,-100.00,North,0,2.0,5.0,68,0.00,,,-99.99,,2013-02-26 01:32:00,
2013-02-25 20:42:00,32.0,23.0,-100.00,North,0,2.0,3.0,69,0.00,,,-99.99,,2013-02-26 01:42:00,
2013-02-25 20:51:00,32.0,23.0,-100.00,NW,320,1.0,5.0,69,0.00,,,-99.99,,2013-02-26 01:51:00,
2013-02-25 21:01:00,32.0,23.0,-100.00,North,5,2.0,4.0,70,0.00,,,-99.99,,2013-02-26 02:01:00,
2013-02-25 21:11:00,31.0,23.0,-100.00,North,0,2.0,4.0,71,0.00,,,-99.99,,2013-02-26 02:11:00,
2013-02-25 21:21:00,31.0,23.0,-100.00,North,5,2.0,4.0,71,0.00,,,-99.99,,2013-02-26 02:21:00,
2013-02-25 21:32:00,31.0,23.0,-100.00,NNE,15,1.0,4.0,72,0.00,,,-99.99,,2013-02-26 02:32:00,
2013-02-25 21:42:00,31.0,23.0,-100.00,North,10,2.0,5.0,72,0.00,,,-99.99,,2013-02-26 02:42:00,
2013-02-25 21:52:00,31.0,23.0,-100.00,NNE,20,2.0,6.0,72,0.00,,,-99.99,,2013-02-26 02:52:00,
2013-02-25 22:02:00,31.0,23.0,-100.00,NE,55,2.0,6.0,70,0.00,,,-99.99,,2013-02-26 03:02:00,
2013-02-25 22:11:00,31.0,22.0,-100.00,NE,40,1.0,3.0,69,0.00,,,-99.99,,2013-02-26 03:11:00,
2013-02-25 22:21:00,31.0,22.0,-100.00,NNE,20,1.0,4.0,69,0.00,,,-99.99,,2013-02-26 03:21:00,
2013-02-25 22:32:00,31.0,22.0,-100.00,NNE,15,0.0,3.0,69,0.00,,,-99.99,,2013-02-26 03:32:00,
2013-02-25 22:42:00,31.0,22.0,-100.00,NNE,20,1.0,4.0,69,0.00,,,-99.99,,2013-02-26 03:42:00,
2013-02-25 22:52:00,31.0,22.0,-100.00,NE,40,1.0,3.0,69,0.00,,,-99.99,,2013-02-26 03:52:00,
2013-02-25 23:02:00,31.0,22.0,-100.00,SW,215,0.0,3.0,68,0.00,,,-99.99,,2013-02-26 04:02:00,
2013-02-25 23:11:00,30.0,22.0,-100.00,SW,220,0.0,2.0,71,0.00,,,-99.99,,2013-02-26 04:11:00,
2013-02-25 23:22:00,30.0,22.0,-100.00,SW,235,0.0,2.0,71,0.00,,,-99.99,,2013-02-26 04:22:00,
2013-02-25 23:32:00,30.0,22.0,-100.00,NNW,340,1.0,3.0,71,0.00,,,-99.99,,2013-02-26 04:32:00,
2013-02-25 23:42:00,28.0,21.0,-100.00,NNW,340,1.0,3.0,73,0.00,,,-99.99,,2013-02-26 04:42:00,
2013-02-25 23:52:00,28.0,21.0,-100.00,NW,325,1.0,3.0,74,0.00,,,-99.99,,2013-02-26 04:52:00,